This is the latest recevied weather packets stored in our database for station/object NI4CE-11. If no packets are shown the sender has not sent any weather packets the latest 10 day(s).
| Time | Temp. | Humidity | Pressure | Rain* | Wind** | Luminosity | Snow |
|---|---|---|---|---|---|---|---|
| 1777914593 | 26.67° C | 100% | 1016.4 hPa | 0 mm | - | - | - |
| 1777914294 | 26.67° C | 100% | 1016.5 hPa | 0 mm | - | - | - |
| 1777914192 | 27.22° C | 100% | 1016.6 hPa | 0 mm | - | - | - |
| 1777913993 | 27.22° C | 100% | 1016.6 hPa | 0 mm | - | - | - |
| 1777913693 | 26.11° C | 100% | 1016.6 hPa | 0 mm | - | - | - |
| 1777913393 | 26.67° C | 100% | 1016.7 hPa | 0 mm | - | - | - |
| 1777913093 | 26.67° C | 100% | 1016.8 hPa | 0 mm | - | - | - |
| 1777912876 | 26.67° C | 100% | 1017 hPa | 0 mm | - | - | - |
| 1777912793 | 26.67° C | 100% | 1016.9 hPa | 0 mm | - | - | - |
| 1777912493 | 26.67° C | 100% | 1017 hPa | 0 mm | - | - | - |
| 1777912193 | 27.22° C | 100% | 1017 hPa | 0 mm | - | - | - |
| 1777912108 | 26.11° C | 100% | 1017.1 hPa | 0 mm | - | - | - |
| 1777911965 | 26.67° C | 100% | 1017.3 hPa | 0 mm | - | - | - |
| 1777911893 | 26.11° C | 100% | 1017.1 hPa | 0 mm | - | - | - |
| 1777911593 | 26.11° C | 100% | 1017.2 hPa | 0 mm | - | - | - |
| 1777911293 | 25.56° C | 100% | 1017.3 hPa | 0 mm | - | - | - |
| 1777910993 | 26.11° C | 100% | 1017.3 hPa | 0 mm | - | - | - |
| 1777910693 | 26.67° C | 100% | 1017.3 hPa | 0 mm | - | - | - |
| 1777910410 | 25.56° C | 100% | 1017.5 hPa | 0 mm | - | - | - |
| 1777910393 | 26.11° C | 100% | 1017.4 hPa | 0 mm | - | - | - |
| 1777910093 | 25.56° C | 100% | 1017.5 hPa | 0 mm | - | - | - |
| 1777909923 | 26.11° C | 100% | 1017.5 hPa | 0 mm | - | - | - |
| 1777909793 | 26.11° C | 100% | 1017.5 hPa | 0 mm | - | - | - |
| 1777909696 | 25.56° C | 100% | 1017.6 hPa | 0 mm | - | - | - |
| 1777909493 | 25.56° C | 100% | 1017.6 hPa | 0 mm | - | - | - |
* Rain latest hour (hover to see other rain measurements)
** Current wind speed in m/s (hover to see current wind gust speed)